Regional Weather Roundup
Issued by NWS

Home | Current Version | Previous Version | Text Only | Print | Product List | Glossary On
Versions: 1 2 3 4 5 6 7 8 9 10 11 12 13 14 15 16 17 18 19 20 21 22 23 24 25 26 27 28 29 30 31 32 33 34 35 36 37 38 39 40 41 42 43 44 45 46 47 48 49 50
000
ASUS44 KBMX 201710
RWRAL

ALABAMA REGIONAL WEATHER ROUNDUP
NATIONAL WEATHER SERVICE BIRMINGHAM AL
1200 PM CDT SAT SEP 20 2014

NOTE: "FAIR" INDICATES FEW OR NO CLOUDS BELOW 12,000 FEET
WITH NO SIGNIFICANT WEATHER AND/OR OBSTRUCTIONS TO VISIBILITY.

THE REMARK "TC" DENOTES TEMPERATURE IN DEGREES CELSIUS.

ALZ001>011-014-016>018-020-201800-
NORTH ALABAMA

CITY           SKY/WX    TMP DP  RH WIND       PRES   REMARKS
MUSCLE SHOALS  SUNNY     81  64  56 E6        30.12F
HUNTSVILLE     MOSUNNY   83  62  49 SE10      30.12F
DECATUR        SUNNY     82  62  50 S8G16     30.13F
HALEYVILLE     FAIR      82  66  58 CALM      30.15F
GADSDEN        PTSUNNY   81  63  54 SE12      30.13F
$$

ALZ012-013-022-023-030>036-040>044-201800-
WEST CENTRAL ALABAMA

CITY           SKY/WX    TMP DP  RH WIND       PRES   REMARKS
TUSCALOOSA     MOSUNNY   83  64  52 VRB7      30.08F
$$

ALZ015-024>027-033>036-040>044-201800-
CENTRAL ALABAMA

CITY           SKY/WX    TMP DP  RH WIND       PRES   REMARKS
BIRMINGHAM     MOSUNNY   80  62  54 SE13      30.14F
MONTGOMERY     CLOUDY    78  65  63 E12       30.09F
SHELBY CO ARPT MOSUNNY   80  65  59 E8        30.11F
MAXWELL AFB    CLOUDY    78  65  64 NE9       30.09F
GREENVILLE     CLOUDY    76  65  68 E8        30.08F
$$

ALZ019-021-028-029-037-038-045>048-201800-
EAST CENTRAL ALABAMA

CITY           SKY/WX    TMP DP  RH WIND       PRES   REMARKS
ANNISTON       PTSUNNY   78  64  61 E14       30.13F
ALEXANDER CITY CLOUDY    76  66  70 E6        30.13F
AUBURN         CLOUDY    73  61  64 E12       30.15F
$$

ALZ051>064-201800-
SOUTHWEST ALABAMA

CITY           SKY/WX    TMP DP  RH WIND       PRES   REMARKS
MOBILE         MOSUNNY   82  69  64 NE13      30.03F
BROOKLEY FIELD MOSUNNY   83  71  67 NE14      30.04S
EVERGREEN      CLOUDY    78  67  68 NE10      30.07F
$$

ALZ049-050-065>069-201800-
SOUTHEAST ALABAMA

CITY           SKY/WX    TMP DP  RH WIND       PRES   REMARKS
DOTHAN         CLOUDY    77  67  71 NE10      30.10F
OZARK          CLOUDY    76  67  72 NE10      30.06F
TROY           CLOUDY    77  65  66 E9        30.09F
EUFAULA        CLOUDY    78  66  66 VRB7      30.07F
$$


USA.gov is the U.S. government's official web portal to all federal, state and local government web resources and services.